When you browse on this site, cookies collect data to enhance your experience and personalize the content and advertising you see.
Visit our Privacy Policy to learn more. By continuing to use the site, you agree to this use of cookies and data.
  • In United Kingdom
  • List of Countries
  • For 7 days
  • Water Temperature
  • Satellite Maps
  • Weather Map
  • Weather Widgets
  • user-avatar
    Login

    Hourly Weather Santo Domingo Tehuantepec

    Today, 20 June, Thursday

    Time Temperature Precipitation Wind Pressure Humidity
    00:00 +30°C° 0.2 mm 2 mps 755 mmHg 82%
    01:00 +29°C° 0.1 mm 2 mps 754 mmHg 82%
    02:00 +29°C° 0.1 mm 2 mps 754 mmHg 82%
    03:00 +29°C° 0.1 mm 2 mps 753 mmHg 82%
    04:00 +29°C° 0 mm 2 mps 753 mmHg 82%
    05:00 +28°C° 0 mm 2 mps 753 mmHg 82%
    06:00 +28°C° 0 mm 2 mps 753 mmHg 82%
    07:00 +31°C° 0 mm 2 mps 754 mmHg 72%
    08:00 +34°C° 0 mm 2 mps 754 mmHg 63%
    09:00 +36°C° 0 mm 2 mps 754 mmHg 54%
    10:00 +38°C° 0 mm 2 mps 754 mmHg 48%
    11:00 +40°C° 0 mm 2 mps 754 mmHg 42%
    12:00 +42°C° 0 mm 2 mps 754 mmHg 37%
    13:00 +41°C° 0.2 mm 2 mps 753 mmHg 42%
    14:00 +39°C° 0.2 mm 3 mps 753 mmHg 48%
    15:00 +38°C° 0.2 mm 3 mps 752 mmHg 53%
    16:00 +36°C° 1.9 mm 3 mps 752 mmHg 62%
    17:00 +34°C° 1.9 mm 2 mps 752 mmHg 70%
    18:00 +32°C° 1.9 mm 2 mps 752 mmHg 79%
    19:00 +31°C° 0.4 mm 1 mps 753 mmHg 81%
    20:00 +31°C° 0.4 mm 1 mps 754 mmHg 83%
    21:00 +28°C° 0.4 mm 0 mps 754 mmHg 85%
    22:00 +30°C° 0.1 mm 1 mps 754 mmHg 85%
    23:00 +29°C° 0.1 mm 1 mps 754 mmHg 85%

    Tomorrow, 21 June, Friday

    Time Temperature Precipitation Wind Pressure Humidity
    00:00 +29°C° 0.1 mm 1 mps 754 mmHg 85%
    01:00 +29°C° 0.1 mm 1 mps 754 mmHg 85%
    02:00 +29°C° 0.1 mm 1 mps 754 mmHg 86%
    03:00 +28°C° 0.1 mm 1 mps 753 mmHg 86%
    04:00 +28°C° 0 mm 1 mps 753 mmHg 86%
    05:00 +28°C° 0 mm 2 mps 753 mmHg 86%
    06:00 +28°C° 0 mm 2 mps 754 mmHg 86%
    07:00 +30°C° 0 mm 2 mps 754 mmHg 77%
    08:00 +34°C° 0 mm 2 mps 755 mmHg 68%
    09:00 +36°C° 0 mm 2 mps 755 mmHg 59%
    10:00 +38°C° 0 mm 2 mps 755 mmHg 53%
    11:00 +40°C° 0 mm 1 mps 755 mmHg 47%
    12:00 +42°C° 0 mm 1 mps 754 mmHg 40%
    13:00 +40°C° 0.4 mm 2 mps 754 mmHg 48%
    14:00 +38°C° 0.4 mm 2 mps 753 mmHg 55%
    15:00 +36°C° 0.4 mm 3 mps 753 mmHg 62%
    16:00 +35°C° 1.8 mm 2 mps 753 mmHg 68%
    17:00 +34°C° 1.8 mm 2 mps 753 mmHg 74%
    18:00 +32°C° 1.8 mm 1 mps 753 mmHg 80%
    19:00 +31°C° 0.6 mm 1 mps 754 mmHg 83%
    20:00 +30°C° 0.6 mm 1 mps 754 mmHg 86%
    21:00 +30°C° 0.6 mm 1 mps 755 mmHg 89%
    22:00 +29°C° 0.9 mm 1 mps 755 mmHg 89%
    23:00 +27°C° 0.9 mm 0 mps 755 mmHg 89%

    Day after tomorrow, 22 June, Saturday

    Time Temperature Precipitation Wind Pressure Humidity
    00:00 +27°C° 0.9 mm 0 mps 755 mmHg 90%
    01:00 +27°C° 0.9 mm 0 mps 755 mmHg 90%
    02:00 +28°C° 0.9 mm 1 mps 755 mmHg 90%
    03:00 +28°C° 0.9 mm 1 mps 754 mmHg 90%
    04:00 +28°C° 0.4 mm 1 mps 754 mmHg 90%
    05:00 +28°C° 0.4 mm 1 mps 754 mmHg 89%
    06:00 +28°C° 0.4 mm 1 mps 754 mmHg 89%
    07:00 +29°C° 0 mm 1 mps 755 mmHg 82%
    08:00 +31°C° 0 mm 1 mps 755 mmHg 76%
    09:00 +33°C° 0 mm 1 mps 756 mmHg 70%
    10:00 +35°C° 0 mm 1 mps 755 mmHg 62%
    11:00 +37°C° 0 mm 1 mps 755 mmHg 55%
    12:00 +39°C° 0 mm 1 mps 755 mmHg 48%
    13:00 +39°C° 0 mm 2 mps 754 mmHg 48%
    14:00 +39°C° 0 mm 2 mps 754 mmHg 49%
    15:00 +39°C° 0 mm 3 mps 753 mmHg 49%
    16:00 +37°C° 1.2 mm 3 mps 753 mmHg 59%
    17:00 +35°C° 1.2 mm 2 mps 753 mmHg 68%
    18:00 +32°C° 1.2 mm 2 mps 753 mmHg 78%
    19:00 +31°C° 1.9 mm 2 mps 754 mmHg 81%
    20:00 +30°C° 1.9 mm 1 mps 755 mmHg 83%
    21:00 +30°C° 1.9 mm 1 mps 755 mmHg 86%
    22:00 +29°C° 0.9 mm 1 mps 755 mmHg 86%
    23:00 +29°C° 0.9 mm 1 mps 755 mmHg 87%

    23 June, Sunday

    Time Temperature Precipitation Wind Pressure Humidity
    00:00 +29°C° 0.9 mm 1 mps 755 mmHg 87%
    01:00 +29°C° 0.3 mm 1 mps 755 mmHg 87%
    02:00 +29°C° 0.3 mm 1 mps 755 mmHg 88%
    03:00 +28°C° 0.3 mm 1 mps 754 mmHg 88%
    04:00 +28°C° 1.9 mm 1 mps 755 mmHg 91%
    05:00 +28°C° 1.9 mm 1 mps 755 mmHg 93%
    06:00 +25°C° 1.9 mm 0 mps 755 mmHg 96%
    07:00 +28°C° 0.9 mm 1 mps 755 mmHg 95%
    08:00 +28°C° 0.9 mm 1 mps 756 mmHg 93%
    09:00 +28°C° 0.9 mm 1 mps 756 mmHg 92%
    10:00 +28°C° 1.1 mm 1 mps 756 mmHg 91%
    11:00 +28°C° 1.1 mm 1 mps 756 mmHg 90%
    12:00 +29°C° 1.1 mm 1 mps 756 mmHg 88%
    13:00 +30°C° 0 mm 1 mps 755 mmHg 81%
    14:00 +32°C° 0 mm 1 mps 754 mmHg 74%
    15:00 +33°C° 0 mm 1 mps 754 mmHg 66%
    16:00 +32°C° 0 mm 1 mps 754 mmHg 69%
    17:00 +32°C° 0 mm 1 mps 753 mmHg 72%
    18:00 +31°C° 0 mm 1 mps 753 mmHg 75%
    19:00 +30°C° 0 mm 1 mps 754 mmHg 79%
    20:00 +29°C° 0 mm 1 mps 754 mmHg 82%
    21:00 +26°C° 0 mm 0 mps 755 mmHg 86%
    22:00 +28°C° 0 mm 1 mps 755 mmHg 85%
    23:00 +27°C° 0 mm 1 mps 755 mmHg 84%

    24 June, Monday

    Time Temperature Precipitation Wind Pressure Humidity
    00:00 +27°C° 0 mm 1 mps 755 mmHg 83%
    01:00 +27°C° 0 mm 1 mps 754 mmHg 82%
    02:00 +27°C° 0 mm 1 mps 754 mmHg 80%
    03:00 +27°C° 0 mm 1 mps 754 mmHg 79%
    04:00 +27°C° 0 mm 1 mps 754 mmHg 78%
    05:00 +27°C° 0 mm 1 mps 754 mmHg 77%
    06:00 +27°C° 0 mm 1 mps 754 mmHg 76%
    07:00 +29°C° 0 mm 1 mps 754 mmHg 70%
    08:00 +31°C° 0 mm 1 mps 754 mmHg 64%
    09:00 +31°C° 0 mm 0 mps 755 mmHg 58%
    10:00 +34°C° 0 mm 1 mps 755 mmHg 56%
    11:00 +36°C° 0 mm 2 mps 754 mmHg 54%
    12:00 +37°C° 0 mm 3 mps 754 mmHg 52%
    13:00 +36°C° 0 mm 3 mps 754 mmHg 53%
    14:00 +36°C° 0 mm 3 mps 753 mmHg 54%
    15:00 +36°C° 0 mm 4 mps 753 mmHg 55%
    16:00 +35°C° 0.1 mm 4 mps 753 mmHg 59%
    17:00 +34°C° 0.1 mm 4 mps 753 mmHg 63%
    18:00 +33°C° 0.1 mm 3 mps 753 mmHg 67%
    19:00 +31°C° 0.1 mm 3 mps 753 mmHg 72%
    20:00 +30°C° 0.1 mm 2 mps 754 mmHg 77%
    21:00 +29°C° 0.1 mm 2 mps 754 mmHg 82%
    22:00 +28°C° 0.2 mm 2 mps 755 mmHg 83%
    23:00 +28°C° 0.2 mm 1 mps 755 mmHg 84%

    25 June, Tuesday

    Time Temperature Precipitation Wind Pressure Humidity
    00:00 +28°C° 0.2 mm 1 mps 755 mmHg 85%
    01:00 +28°C° 0.1 mm 1 mps 754 mmHg 84%
    02:00 +27°C° 0.1 mm 1 mps 754 mmHg 84%
    03:00 +27°C° 0.1 mm 1 mps 754 mmHg 84%
    04:00 +27°C° 0 mm 1 mps 754 mmHg 83%
    05:00 +27°C° 0 mm 1 mps 754 mmHg 82%
    06:00 +27°C° 0 mm 1 mps 754 mmHg 81%
    07:00 +29°C° 0 mm 1 mps 755 mmHg 74%
    08:00 +29°C° 0 mm 0 mps 755 mmHg 66%
    09:00 +31°C° 0 mm 0 mps 755 mmHg 59%
    10:00 +35°C° 0 mm 1 mps 755 mmHg 54%
    11:00 +36°C° 0 mm 1 mps 755 mmHg 50%
    12:00 +38°C° 0 mm 2 mps 755 mmHg 46%
    13:00 +38°C° 0 mm 2 mps 754 mmHg 46%
    14:00 +38°C° 0 mm 2 mps 753 mmHg 46%
    15:00 +38°C° 0 mm 2 mps 753 mmHg 45%
    16:00 +37°C° 0 mm 2 mps 753 mmHg 50%
    17:00 +36°C° 0 mm 2 mps 753 mmHg 54%
    18:00 +35°C° 0 mm 2 mps 753 mmHg 58%
    19:00 +32°C° 0 mm 1 mps 753 mmHg 63%
    20:00 +31°C° 0 mm 1 mps 754 mmHg 68%
    21:00 +29°C° 0 mm 1 mps 754 mmHg 74%
    22:00 +29°C° 0.3 mm 1 mps 755 mmHg 76%
    23:00 +29°C° 0.3 mm 1 mps 755 mmHg 78%
    Show more